TimeCDT,TemperatureF,Dew PointF,Humidity,Sea Level PressureIn,VisibilityMPH,Wind Direction,Wind SpeedMPH,Gust SpeedMPH,PrecipitationIn,Events,Conditions,WindDirDegrees,DateUTC
12:13 AM,28.4,21.2,74,30.23,10.0,SSW,4.6,-,N/A,,Clear,210,2012-10-07 05:13:00
12:34 AM,28.4,21.2,74,30.23,10.0,SW,3.5,-,N/A,,Clear,220,2012-10-07 05:34:00
12:53 AM,28.4,21.2,74,30.23,10.0,SW,5.8,-,N/A,,Clear,220,2012-10-07 05:53:00
1:13 AM,28.4,21.2,74,30.22,10.0,SW,6.9,-,N/A,,Clear,220,2012-10-07 06:13:00
1:33 AM,26.6,19.4,74,30.22,10.0,SW,5.8,-,N/A,,Clear,220,2012-10-07 06:33:00
1:53 AM,26.6,21.2,80,30.21,10.0,SW,6.9,-,N/A,,Clear,220,2012-10-07 06:53:00
2:13 AM,26.6,19.4,74,30.21,10.0,SW,4.6,-,N/A,,Clear,220,2012-10-07 07:13:00
2:33 AM,26.6,19.4,74,30.20,10.0,SW,5.8,-,N/A,,Clear,220,2012-10-07 07:33:00
2:53 AM,26.6,21.2,80,30.20,10.0,SSW,5.8,-,N/A,,Clear,210,2012-10-07 07:53:00
3:13 AM,28.4,21.2,74,30.18,10.0,SSW,5.8,-,N/A,,Clear,210,2012-10-07 08:13:00
3:53 AM,28.4,21.2,74,30.17,10.0,SSW,6.9,-,N/A,,Clear,210,2012-10-07 08:53:00
4:13 AM,28.4,21.2,74,30.16,10.0,SSW,6.9,-,N/A,,Clear,210,2012-10-07 09:13:00
4:34 AM,26.6,21.2,80,30.16,10.0,SW,6.9,-,N/A,,Clear,220,2012-10-07 09:34:00
4:53 AM,26.6,21.2,80,30.15,10.0,SW,6.9,-,N/A,,Clear,220,2012-10-07 09:53:00
5:13 AM,26.6,19.4,74,30.15,10.0,SW,5.8,-,N/A,,Clear,220,2012-10-07 10:13:00
5:33 AM,26.6,19.4,74,30.14,10.0,SW,5.8,-,N/A,,Clear,230,2012-10-07 10:33:00
5:53 AM,26.6,21.2,80,30.14,10.0,SW,8.1,-,N/A,,Clear,220,2012-10-07 10:53:00
6:13 AM,28.4,21.2,74,30.13,10.0,SW,8.1,-,N/A,,Clear,220,2012-10-07 11:13:00
6:33 AM,28.4,21.2,74,30.13,10.0,SW,6.9,-,N/A,,Clear,220,2012-10-07 11:33:00
6:53 AM,28.4,21.2,74,30.12,10.0,SW,6.9,-,N/A,,Clear,220,2012-10-07 11:53:00
7:13 AM,28.4,21.2,74,30.12,10.0,SW,5.8,-,N/A,,Clear,220,2012-10-07 12:13:00
7:33 AM,28.4,19.4,69,30.11,10.0,SSW,5.8,-,N/A,,Clear,210,2012-10-07 12:33:00
7:53 AM,28.4,21.2,74,30.11,5.0,SSW,5.8,-,N/A,,Haze,210,2012-10-07 12:53:00
8:13 AM,30.2,21.2,69,30.10,10.0,SSW,5.8,-,N/A,,Clear,200,2012-10-07 13:13:00
8:34 AM,30.2,21.2,69,30.10,10.0,SSW,6.9,-,N/A,,Clear,200,2012-10-07 13:34:00
8:53 AM,33.8,23.0,65,30.09,10.0,South,6.9,-,N/A,,Clear,190,2012-10-07 13:53:00
9:13 AM,35.6,23.0,60,30.09,10.0,SSW,8.1,-,N/A,,Clear,200,2012-10-07 14:13:00
9:34 AM,37.4,23.0,56,30.08,10.0,SSW,9.2,-,N/A,,Clear,210,2012-10-07 14:34:00
9:53 AM,39.2,23.0,52,30.08,10.0,SSW,11.5,-,N/A,,Clear,210,2012-10-07 14:53:00
10:13 AM,42.8,23.0,46,30.07,10.0,SSW,9.2,-,N/A,,Clear,210,2012-10-07 15:13:00
10:33 AM,44.6,21.2,39,30.07,10.0,SW,11.5,-,N/A,,Clear,230,2012-10-07 15:33:00
10:53 AM,48.2,21.2,34,30.06,10.0,SSW,12.7,-,N/A,,Clear,200,2012-10-07 15:53:00
11:14 AM,51.8,17.6,26,30.05,10.0,SW,12.7,16.1,N/A,,Clear,220,2012-10-07 16:14:00
11:34 AM,51.8,17.6,26,30.04,10.0,WSW,10.4,18.4,N/A,,Clear,240,2012-10-07 16:34:00
11:54 AM,53.6,14.0,21,30.03,10.0,WSW,12.7,18.4,N/A,,Clear,250,2012-10-07 16:54:00
12:13 PM,53.6,12.2,19,30.02,10.0,SW,10.4,19.6,N/A,,Clear,230,2012-10-07 17:13:00
12:34 PM,55.4,14.0,20,30.01,10.0,SW,18.4,-,N/A,,Clear,230,2012-10-07 17:34:00
12:53 PM,55.4,12.2,18,30.00,10.0,WSW,19.6,-,N/A,,Clear,250,2012-10-07 17:53:00
1:33 PM,57.2,15.8,20,29.98,10.0,WSW,19.6,25.3,N/A,,Clear,250,2012-10-07 18:33:00
1:53 PM,57.2,14.0,18,29.97,10.0,SW,18.4,24.2,N/A,,Scattered Clouds,230,2012-10-07 18:53:00
2:14 PM,57.2,14.0,18,29.96,10.0,West,18.4,23.0,N/A,,Scattered Clouds,270,2012-10-07 19:14:00
2:33 PM,57.2,14.0,18,29.95,10.0,WSW,13.8,19.6,N/A,,Scattered Clouds,240,2012-10-07 19:33:00
2:53 PM,57.2,12.2,17,29.94,10.0,WSW,18.4,23.0,N/A,,Clear,250,2012-10-07 19:53:00
3:13 PM,57.2,12.2,17,29.93,10.0,WSW,15.0,19.6,N/A,,Clear,240,2012-10-07 20:13:00
3:33 PM,57.2,12.2,17,29.92,10.0,WSW,17.3,-,N/A,,Clear,250,2012-10-07 20:33:00
3:53 PM,57.2,8.6,14,29.91,10.0,West,13.8,20.7,N/A,,Clear,270,2012-10-07 20:53:00
4:13 PM,57.2,10.4,16,29.90,10.0,West,12.7,19.6,N/A,,Clear,270,2012-10-07 21:13:00
4:33 PM,57.2,10.4,16,29.90,10.0,West,13.8,-,N/A,,Clear,260,2012-10-07 21:33:00
4:53 PM,57.2,10.4,16,29.89,10.0,West,9.2,12.7,N/A,,Clear,260,2012-10-07 21:53:00
5:13 PM,57.2,10.4,16,29.89,10.0,West,10.4,-,N/A,,Clear,270,2012-10-07 22:13:00
5:33 PM,57.2,10.4,16,29.89,10.0,West,9.2,17.3,N/A,,Scattered Clouds,260,2012-10-07 22:33:00
5:53 PM,55.4,12.2,18,29.88,10.0,WSW,10.4,-,N/A,,Clear,250,2012-10-07 22:53:00
6:13 PM,53.6,12.2,19,29.88,10.0,SW,5.8,-,N/A,,Clear,230,2012-10-07 23:13:00
6:34 PM,53.6,14.0,21,29.87,10.0,SSW,4.6,-,N/A,,Clear,210,2012-10-07 23:34:00
6:53 PM,51.8,15.8,24,29.86,10.0,SSW,3.5,-,N/A,,Clear,210,2012-10-07 23:53:00
7:13 PM,50.0,15.8,26,29.86,10.0,South,3.5,-,N/A,,Clear,180,2012-10-08 00:13:00
7:33 PM,48.2,15.8,27,29.86,10.0,South,3.5,-,N/A,,Clear,170,2012-10-08 00:33:00
7:53 PM,46.4,15.8,29,29.86,10.0,South,4.6,-,N/A,,Clear,170,2012-10-08 00:53:00
8:13 PM,44.6,15.8,31,29.85,10.0,South,4.6,-,N/A,,Clear,170,2012-10-08 01:13:00
8:34 PM,44.6,15.8,31,29.85,10.0,South,4.6,-,N/A,,Clear,170,2012-10-08 01:34:00
8:53 PM,44.6,15.8,31,29.85,10.0,South,5.8,-,N/A,,Clear,180,2012-10-08 01:53:00
9:13 PM,44.6,15.8,31,29.85,10.0,South,5.8,-,N/A,,Clear,170,2012-10-08 02:13:00
9:33 PM,42.8,17.6,36,29.84,10.0,South,5.8,-,N/A,,Clear,170,2012-10-08 02:33:00
9:53 PM,42.8,17.6,36,29.84,10.0,South,5.8,-,N/A,,Clear,170,2012-10-08 02:53:00
10:13 PM,42.8,17.6,36,29.84,10.0,South,5.8,-,N/A,,Clear,190,2012-10-08 03:13:00
10:34 PM,42.8,17.6,36,29.83,10.0,SSW,4.6,-,N/A,,Clear,200,2012-10-08 03:34:00
10:53 PM,42.8,17.6,36,29.83,10.0,South,8.1,-,N/A,,Clear,190,2012-10-08 03:53:00
11:13 PM,42.8,17.6,36,29.82,10.0,SSW,6.9,-,N/A,,Clear,200,2012-10-08 04:13:00
11:33 PM,39.2,19.4,45,29.82,10.0,South,4.6,-,N/A,,Clear,190,2012-10-08 04:33:00
11:53 PM,39.2,19.4,45,29.81,10.0,SSW,4.6,-,N/A,,Clear,200,2012-10-08 04:53:00